| time (UTC) | temp C | wind direction | speed KPH | gust KPH | rain 1hr cm | rain 24hr cm | rain mn cm | humidity % | barometer mb |
| 20260508102306 | -17 | 0.0 | 0.0 | 0.00 | 0.00 | 0.00 | 956.6 | ||
| 20260508101800 | -17 | 0.0 | 0.0 | 0.00 | 0.00 | 0.00 | 956.6 | ||
| 20260508101257 | 0 | 42 | 0.0 | 0.0 | 0.00 | 0.00 | 0.00 | 98 | 956.6 |
| 20260508100755 | 0 | 42 | 0.0 | 0.0 | 0.00 | 0.00 | 0.00 | 98 | 956.5 |
| 20260508100253 | 0 | 42 | 0.0 | 0.0 | 0.00 | 0.00 | 0.00 | 97 | 956.4 |
| 20260508095748 | 0 | 42 | 0.0 | 0.0 | 0.00 | 0.00 | 0.00 | 98 | 956.1 |
| 20260508095246 | 0 | 42 | 0.0 | 0.0 | 0.00 | 0.00 | 0.00 | 98 | 956.1 |
| 20260508094743 | 0 | 43 | 0.0 | 0.0 | 0.00 | 0.00 | 0.00 | 98 | 956.4 |
| 20260508094240 | 0 | 43 | 0.0 | 0.0 | 0.00 | 0.00 | 0.00 | 97 | 956.1 |
| 20260508093737 | 0 | 43 | 0.0 | 0.0 | 0.00 | 0.00 | 0.00 | 97 | 956.0 |
| 20260508093235 | 0 | 43 | 0.0 | 0.0 | 0.00 | 0.00 | 0.00 | 97 | 955.9 |
| 20260508092732 | 0 | 54 | 0.0 | 0.0 | 0.00 | 0.00 | 0.00 | 97 | 956.2 |
| 20260508092230 | 0 | 73 | 0.0 | 0.0 | 0.00 | 0.00 | 0.00 | 97 | 956.1 |
| 20260508091728 | 0 | 81 | 0.0 | 0.0 | 0.00 | 0.00 | 0.00 | 97 | 956.0 |
| 20260508091224 | 0 | 81 | 0.0 | 0.0 | 0.00 | 0.00 | 0.00 | 97 | 956.0 |
| 20260508090722 | 0 | 81 | 0.0 | 0.0 | 0.00 | 0.00 | 0.00 | 97 | 955.9 |
| 20260508090219 | 0 | 81 | 0.0 | 0.0 | 0.00 | 0.00 | 0.00 | 97 | 955.9 |
| 20260508085715 | 0 | 92 | 0.0 | 0.0 | 0.00 | 0.00 | 0.00 | 97 | 956.0 |
| 20260508085213 | 0 | 92 | 0.0 | 0.0 | 0.00 | 0.00 | 0.00 | 97 | 956.1 |
| 20260508084708 | 0 | 83 | 0.0 | 0.0 | 0.00 | 0.00 | 0.00 | 97 | 955.8 |
| 20260508084206 | 0 | 76 | 0.0 | 0.0 | 0.00 | 0.00 | 0.00 | 97 | 955.9 |
| 20260508083704 | 0 | 76 | 0.0 | 0.0 | 0.00 | 0.00 | 0.00 | 97 | 955.8 |
| 20260508083201 | 0 | 83 | 0.0 | 0.0 | 0.00 | 0.00 | 0.00 | 97 | 955.7 |
| 20260508082655 | 0 | 76 | 0.0 | 0.0 | 0.00 | 0.00 | 0.00 | 97 | 955.5 |
| 20260508082153 | 0 | 76 | 0.0 | 0.0 | 0.00 | 0.00 | 0.00 | 97 | 955.8 |
| 20260508081651 | 0 | 93 | 0.0 | 0.0 | 0.00 | 0.00 | 0.00 | 97 | 955.8 |
| 20260508081147 | 0 | 93 | 0.0 | 0.0 | 0.00 | 0.00 | 0.00 | 97 | 955.8 |
| 20260508080644 | 0 | 100 | 0.0 | 0.0 | 0.00 | 0.00 | 0.00 | 97 | 955.8 |
| 20260508080143 | 0 | 108 | 0.0 | 0.0 | 0.00 | 0.00 | 0.00 | 97 | 955.8 |
| 20260508075639 | 0 | 108 | 0.0 | 0.0 | 0.00 | 0.00 | 0.00 | 97 | 955.7 |
| 20260508075136 | 0 | 108 | 0.0 | 0.0 | 0.00 | 0.00 | 0.00 | 97 | 955.7 |
| 20260508074633 | 0 | 108 | 0.0 | 0.0 | 0.00 | 0.00 | 0.00 | 97 | 955.6 |
| 20260508074130 | 0 | 108 | 0.0 | 0.0 | 0.00 | 0.00 | 0.00 | 96 | 955.6 |
| 20260508073627 | 0 | 108 | 0.0 | 0.0 | 0.00 | 0.00 | 0.00 | 96 | 955.7 |
| 20260508073126 | 0 | 108 | 0.0 | 0.0 | 0.00 | 0.00 | 0.00 | 96 | 955.6 |
| 20260508072620 | 0 | 3 | 0.0 | 0.0 | 0.00 | 0.00 | 0.00 | 96 | 955.7 |
| 20260508072118 | 0 | 3 | 0.0 | 0.0 | 0.00 | 0.00 | 0.00 | 95 | 955.6 |
| 20260508071615 | 0 | 3 | 0.0 | 0.0 | 0.00 | 0.00 | 0.00 | 95 | 955.7 |
| 20260508071114 | 0 | 3 | 0.0 | 0.0 | 0.00 | 0.00 | 0.00 | 95 | 955.6 |
| 20260508070611 | 0 | 3 | 0.0 | 0.0 | 0.00 | 0.00 | 0.00 | 95 | 955.4 |
| 20260508070109 | 0 | 3 | 0.0 | 0.0 | 0.00 | 0.00 | 0.00 | 95 | 955.4 |
| 20260508065606 | 0 | 3 | 0.0 | 0.0 | 0.00 | 0.00 | 0.00 | 95 | 955.4 |
| 20260508065104 | 1 | 3 | 0.0 | 0.0 | 0.00 | 0.00 | 0.00 | 95 | 955.6 |
| 20260508064601 | 1 | 4 | 0.0 | 0.0 | 0.00 | 0.00 | 0.00 | 94 | 955.6 |
| 20260508064059 | 1 | 3 | 0.0 | 0.0 | 0.00 | 0.00 | 0.00 | 94 | 955.7 |
| 20260508063556 | 1 | 4 | 0.0 | 0.0 | 0.00 | 0.00 | 0.00 | 94 | 955.8 |
| 20260508063054 | 1 | 3 | 0.0 | 0.0 | 0.00 | 0.00 | 0.00 | 93 | 955.6 |
| 20260508062552 | 1 | 3 | 0.0 | 0.0 | 0.00 | 0.00 | 0.00 | 93 | 955.7 |
| 20260508062048 | 1 | 3 | 0.0 | 0.0 | 0.00 | 0.00 | 0.00 | 93 | 955.8 |
| 20260508061546 | 1 | 3 | 0.0 | 0.0 | 0.00 | 0.00 | 0.00 | 93 | 955.6 |
| 20260508061043 | 1 | 3 | 0.0 | 0.0 | 0.00 | 0.00 | 0.00 | 93 | 955.6 |
| 20260508060539 | 1 | 3 | 0.0 | 0.0 | 0.00 | 0.00 | 0.00 | 93 | 955.7 |
| 20260508060037 | 1 | 3 | 0.0 | 0.0 | 0.00 | 0.00 | 0.00 | 94 | 955.6 |
| 20260508055532 | 1 | 3 | 0.0 | 0.0 | 0.00 | 0.00 | 0.00 | 94 | 955.5 |
| 20260508055030 | 1 | 3 | 0.0 | 0.0 | 0.00 | 0.00 | 0.00 | 94 | 955.6 |
| 20260508054526 | 1 | 4 | 0.0 | 0.0 | 0.00 | 0.00 | 0.00 | 95 | 955.4 |
| 20260508054023 | 1 | 4 | 0.0 | 0.0 | 0.00 | 0.00 | 0.00 | 95 | 955.6 |
| 20260508053520 | 1 | 15 | 0.0 | 0.0 | 0.00 | 0.00 | 0.00 | 96 | 955.5 |
| 20260508053019 | 1 | 15 | 0.0 | 0.0 | 0.00 | 0.00 | 0.00 | 96 | 955.5 |
| 20260508052515 | 1 | 22 | 0.0 | 0.0 | 0.00 | 0.00 | 0.00 | 96 | 955.5 |
| 20260508052012 | 2 | 22 | 0.0 | 0.0 | 0.00 | 0.00 | 0.00 | 96 | 955.4 |
| 20260508051508 | 2 | 26 | 0.0 | 0.0 | 0.00 | 0.00 | 0.00 | 96 | 955.3 |
| 20260508051003 | 2 | 26 | 0.0 | 0.0 | 0.00 | 0.00 | 0.00 | 96 | 955.5 |
| 20260508050500 | 2 | 105 | 0.0 | 0.0 | 0.00 | 0.00 | 0.00 | 96 | 955.4 |
| 20260508045956 | 2 | 114 | 0.0 | 0.0 | 0.00 | 0.00 | 0.00 | 96 | 955.4 |
| 20260508045454 | 2 | 114 | 0.0 | 0.0 | 0.00 | 0.00 | 0.00 | 96 | 955.3 |
| 20260508044951 | 2 | 114 | 0.0 | 0.0 | 0.00 | 0.00 | 0.00 | 96 | 955.5 |
| 20260508044448 | 2 | 114 | 0.0 | 0.0 | 0.00 | 0.00 | 0.00 | 96 | 955.4 |
| 20260508043943 | 2 | 114 | 0.0 | 0.0 | 0.00 | 0.00 | 0.00 | 96 | 955.3 |
| 20260508043441 | 2 | 115 | 0.0 | 0.0 | 0.00 | 0.00 | 0.00 | 95 | 955.5 |
| 20260508042937 | 2 | 115 | 0.0 | 0.0 | 0.00 | 0.00 | 0.00 | 95 | 955.2 |
| 20260508042435 | 2 | 116 | 0.0 | 0.0 | 0.00 | 0.00 | 0.00 | 95 | 955.2 |
| 20260508041932 | 2 | 55 | 0.0 | 0.0 | 0.00 | 0.00 | 0.00 | 96 | 955.3 |
| 20260508041428 | 2 | 8 | 0.0 | 0.0 | 0.00 | 0.00 | 0.00 | 95 | 955.3 |
| 20260508040925 | 2 | 8 | 0.0 | 0.0 | 0.00 | 0.00 | 0.00 | 95 | 955.1 |
| 20260508040423 | 2 | 354 | 0.0 | 0.0 | 0.00 | 0.00 | 0.00 | 94 | 955.1 |
| 20260508035920 | 2 | 354 | 0.0 | 0.0 | 0.00 | 0.00 | 0.00 | 94 | 955.0 |
| 20260508035417 | 2 | 354 | 0.0 | 0.0 | 0.00 | 0.00 | 0.00 | 94 | 955.2 |
| 20260508034914 | 3 | 354 | 0.0 | 0.0 | 0.00 | 0.00 | 0.00 | 94 | 955.2 |
| 20260508034411 | 3 | 354 | 0.0 | 0.0 | 0.00 | 0.00 | 0.00 | 94 | 954.9 |
| 20260508033907 | 3 | 354 | 0.0 | 0.0 | 0.00 | 0.00 | 0.00 | 93 | 954.8 |
| 20260508033406 | 3 | 354 | 0.0 | 0.0 | 0.00 | 0.00 | 0.00 | 93 | 955.0 |
| 20260508032903 | 3 | 354 | 0.0 | 0.0 | 0.00 | 0.00 | 0.00 | 93 | 954.8 |
| 20260508032400 | 3 | 354 | 0.0 | 0.0 | 0.00 | 0.00 | 0.00 | 93 | 955.0 |
| 20260508031857 | 3 | 354 | 0.0 | 0.0 | 0.00 | 0.00 | 0.00 | 92 | 954.8 |
| 20260508031354 | 3 | 354 | 0.0 | 0.0 | 0.00 | 0.00 | 0.00 | 92 | 954.8 |
| 20260508030850 | 4 | 354 | 0.0 | 0.0 | 0.00 | 0.00 | 0.00 | 92 | 954.6 |
| 20260508030347 | 4 | 354 | 0.0 | 0.0 | 0.00 | 0.00 | 0.00 | 92 | 954.7 |
| 20260508025844 | -17 | 0.0 | 0.0 | 0.00 | 0.00 | 0.00 | 954.5 | ||
| 20260508025341 | 4 | 354 | 0.0 | 0.0 | 0.00 | 0.00 | 0.00 | 90 | 954.5 |
| 20260508024838 | 4 | 354 | 0.0 | 0.0 | 0.00 | 0.00 | 0.00 | 90 | 954.4 |
| 20260508024334 | 5 | 342 | 0.0 | 0.0 | 0.00 | 0.00 | 0.00 | 89 | 954.5 |
| 20260508023831 | 5 | 342 | 0.0 | 0.0 | 0.00 | 0.00 | 0.00 | 89 | 954.5 |
| 20260508023328 | 5 | 342 | 0.0 | 0.0 | 0.00 | 0.00 | 0.00 | 88 | 954.5 |
| 20260508022825 | 5 | 342 | 0.0 | 0.0 | 0.00 | 0.00 | 0.00 | 87 | 954.2 |
| 20260508022321 | 5 | 342 | 0.0 | 0.0 | 0.00 | 0.00 | 0.00 | 86 | 954.2 |
| 20260508021818 | 5 | 342 | 0.0 | 0.0 | 0.00 | 0.00 | 0.00 | 85 | 954.2 |
| 20260508021314 | 6 | 342 | 0.0 | 0.0 | 0.00 | 0.00 | 0.00 | 84 | 954.2 |
| 20260508020810 | 6 | 342 | 0.0 | 0.0 | 0.00 | 0.00 | 0.00 | 83 | 953.9 |
| 20260508020308 | 6 | 342 | 0.0 | 0.0 | 0.00 | 0.00 | 0.00 | 83 | 954.2 |
| 20260508015804 | 6 | 341 | 0.0 | 0.0 | 0.00 | 0.00 | 0.00 | 84 | 954.1 |
| 20260508015305 | 6 | 342 | 0.0 | 0.0 | 0.00 | 0.00 | 0.00 | 84 | 954.0 |
| 20260508014759 | 6 | 342 | 0.0 | 0.0 | 0.00 | 0.00 | 0.00 | 83 | 953.9 |
| 20260508014256 | -17 | 0.0 | 0.0 | 0.00 | 0.00 | 0.00 | 953.9 | ||
| 20260508013751 | 6 | 338 | 0.0 | 0.0 | 0.00 | 0.00 | 0.00 | 83 | 953.9 |
| 20260508013248 | 6 | 338 | 0.0 | 0.0 | 0.00 | 0.00 | 0.00 | 83 | 953.7 |
| 20260508012745 | 6 | 338 | 0.0 | 0.0 | 0.00 | 0.00 | 0.00 | 81 | 953.8 |
| 20260508012242 | 7 | 339 | 0.0 | 0.0 | 0.00 | 0.00 | 0.00 | 80 | 953.5 |
| 20260508011740 | 7 | 338 | 0.0 | 0.0 | 0.00 | 0.00 | 0.00 | 78 | 953.6 |
| 20260508011237 | 7 | 338 | 0.0 | 0.0 | 0.00 | 0.00 | 0.00 | 77 | 953.5 |
| 20260508010734 | 7 | 338 | 0.0 | 0.0 | 0.00 | 0.00 | 0.00 | 74 | 953.4 |
| 20260508010232 | 7 | 333 | 0.0 | 0.0 | 0.00 | 0.00 | 0.00 | 75 | 953.4 |
| 20260508005729 | 8 | 322 | 0.0 | 0.0 | 0.00 | 0.00 | 0.00 | 72 | 953.5 |
| 20260508005226 | 8 | 332 | 0.0 | 0.0 | 0.00 | 0.00 | 0.00 | 72 | 953.5 |
| 20260508004721 | 8 | 254 | 3.2 | 3.2 | 0.00 | 0.00 | 0.00 | 67 | 953.6 |
| 20260508004218 | 8 | 278 | 0.0 | 0.0 | 0.00 | 0.00 | 0.00 | 70 | 953.4 |
| 20260508003715 | 8 | 328 | 0.0 | 0.0 | 0.00 | 0.00 | 0.00 | 72 | 953.3 |
| 20260508003212 | 8 | 326 | 1.6 | 1.6 | 0.00 | 0.00 | 0.00 | 71 | 953.3 |
| 20260508002708 | 9 | 270 | 0.0 | 1.6 | 0.00 | 0.00 | 0.00 | 66 | 953.1 |
| 20260508002206 | 10 | 251 | 1.6 | 3.2 | 0.00 | 0.00 | 0.00 | 63 | 953.3 |
| 20260508001701 | 10 | 274 | 0.0 | 0.0 | 0.00 | 0.00 | 0.00 | 61 | 953.0 |
| 20260508001157 | 10 | 337 | 0.0 | 0.0 | 0.00 | 0.00 | 0.00 | 62 | 952.9 |
| 20260508000654 | 10 | 337 | 1.6 | 3.2 | 0.00 | 0.00 | 0.00 | 62 | 953.0 |
| 20260508000151 | 10 | 346 | 0.0 | 0.0 | 0.00 | 0.00 | 0.00 | 60 | 952.9 |
| 20260507235647 | 10 | 242 | 1.6 | 1.6 | 0.00 | 0.00 | 0.00 | 60 | 952.9 |
| 20260507235145 | 11 | 257 | 0.0 | 0.0 | 0.00 | 0.00 | 0.00 | 59 | 953.1 |
| 20260507234642 | 11 | 299 | 0.0 | 0.0 | 0.00 | 0.00 | 0.00 | 58 | 953.0 |
| 20260507234138 | 11 | 284 | 1.6 | 6.4 | 0.00 | 0.00 | 0.00 | 59 | 952.9 |
| 20260507233635 | 11 | 284 | 1.6 | 1.6 | 0.00 | 0.00 | 0.00 | 58 | 952.8 |
| 20260507233134 | 11 | 288 | 0.0 | 0.0 | 0.00 | 0.00 | 0.00 | 59 | 952.9 |
| 20260507232629 | 11 | 267 | 0.0 | 0.0 | 0.00 | 0.00 | 0.00 | 61 | 953.0 |
| 20260507232127 | 11 | 237 | 0.0 | 4.8 | 0.00 | 0.00 | 0.00 | 59 | 952.9 |
| 20260507231623 | 11 | 340 | 1.6 | 3.2 | 0.00 | 0.00 | 0.00 | 58 | 953.0 |
| 20260507231121 | 11 | 316 | 0.0 | 0.0 | 0.00 | 0.00 | 0.00 | 59 | 952.6 |
| 20260507230616 | 12 | 239 | 4.8 | 6.4 | 0.00 | 0.00 | 0.00 | 57 | 952.7 |
| 20260507230114 | 12 | 277 | 1.6 | 3.2 | 0.00 | 0.00 | 0.00 | 57 | 952.8 |
| 20260507225608 | 12 | 207 | 1.6 | 6.4 | 0.00 | 0.00 | 0.00 | 56 | 952.7 |
| 20260507225105 | 13 | 288 | 1.6 | 4.8 | 0.00 | 0.00 | 0.00 | 57 | 952.5 |
| 20260507224601 | 13 | 256 | 1.6 | 3.2 | 0.00 | 0.00 | 0.00 | 55 | 952.5 |
| 20260507224058 | 13 | 252 | 0.0 | 3.2 | 0.00 | 0.00 | 0.00 | 54 | 952.6 |
| 20260507223554 | 12 | 177 | 3.2 | 3.2 | 0.00 | 0.00 | 0.00 | 56 | 952.6 |
| 20260507223051 | 12 | 281 | 0.0 | 0.0 | 0.00 | 0.00 | 0.00 | 57 | 952.5 |
| 20260507222548 | 13 | 243 | 3.2 | 9.7 | 0.00 | 0.00 | 0.00 | 56 | 952.5 |
| 20260507222044 | 13 | 275 | 3.2 | 6.4 | 0.00 | 0.00 | 0.00 | 56 | 952.3 |
| 20260507221541 | 12 | 190 | 1.6 | 6.4 | 0.00 | 0.00 | 0.00 | 56 | 952.2 |
| 20260507221038 | 13 | 240 | 6.4 | 11.3 | 0.00 | 0.00 | 0.00 | 57 | 952.4 |
| 20260507220535 | 13 | 325 | 1.6 | 6.4 | 0.00 | 0.00 | 0.00 | 60 | 952.1 |
| 20260507220032 | 14 | 197 | 1.6 | 1.6 | 0.00 | 0.00 | 0.00 | 56 | 952.3 |
| 20260507215528 | 13 | 169 | 3.2 | 11.3 | 0.00 | 0.00 | 0.00 | 54 | 952.1 |
| 20260507215027 | 14 | 106 | 3.2 | 6.4 | 0.00 | 0.00 | 0.00 | 54 | 952.0 |
| 20260507214523 | 14 | 245 | 1.6 | 4.8 | 0.00 | 0.00 | 0.00 | 57 | 952.1 |
| 20260507214019 | 13 | 212 | 1.6 | 6.4 | 0.00 | 0.00 | 0.00 | 55 | 952.1 |
| 20260507213516 | 13 | 312 | 0.0 | 1.6 | 0.00 | 0.00 | 0.00 | 61 | 952.1 |
| 20260507213013 | 13 | 54 | 6.4 | 11.3 | 0.00 | 0.00 | 0.00 | 57 | 952.0 |
| 20260507212508 | 15 | 272 | 1.6 | 4.8 | 0.00 | 0.00 | 0.00 | 55 | 951.7 |
| 20260507212005 | 14 | 136 | 1.6 | 12.9 | 0.00 | 0.00 | 0.00 | 55 | 951.6 |
| 20260507211502 | 13 | 265 | 9.7 | 11.3 | 0.00 | 0.00 | 0.00 | 55 | 951.7 |
| 20260507210958 | 13 | 318 | 4.8 | 6.4 | 0.00 | 0.00 | 0.00 | 58 | 951.6 |
| 20260507210455 | 12 | 316 | 0.0 | 3.2 | 0.00 | 0.00 | 0.00 | 64 | 951.7 |
| 20260507205952 | 12 | 254 | 1.6 | 6.4 | 0.00 | 0.00 | 0.00 | 63 | 951.7 |
| 20260507205449 | 12 | 303 | 1.6 | 6.4 | 0.00 | 0.00 | 0.00 | 59 | 951.6 |
| 20260507204945 | 12 | 277 | 3.2 | 3.2 | 0.00 | 0.00 | 0.00 | 58 | 951.6 |
| 20260507204442 | 12 | 261 | 0.0 | 4.8 | 0.00 | 0.00 | 0.00 | 59 | 951.6 |
| 20260507203940 | 12 | 319 | 3.2 | 6.4 | 0.00 | 0.00 | 0.00 | 59 | 951.5 |
| 20260507203437 | 13 | 234 | 3.2 | 9.7 | 0.00 | 0.00 | 0.00 | 58 | 951.6 |
| 20260507202934 | 14 | 261 | 1.6 | 6.4 | 0.00 | 0.00 | 0.00 | 54 | 951.6 |
| 20260507202430 | 13 | 326 | 3.2 | 9.7 | 0.00 | 0.00 | 0.00 | 55 | 951.4 |
| 20260507201926 | 13 | 3 | 6.4 | 9.7 | 0.00 | 0.00 | 0.00 | 54 | 951.9 |
| 20260507201421 | 13 | 282 | 0.0 | 11.3 | 0.00 | 0.00 | 0.00 | 59 | 951.6 |
| 20260507200919 | 14 | 328 | 6.4 | 9.7 | 0.00 | 0.00 | 0.00 | 55 | 951.9 |
| 20260507200414 | 12 | 253 | 1.6 | 4.8 | 0.00 | 0.00 | 0.00 | 58 | 951.9 |
| 20260507195910 | 12 | 276 | 6.4 | 6.4 | 0.00 | 0.00 | 0.00 | 61 | 952.2 |
| 20260507195408 | 12 | 232 | 3.2 | 6.4 | 0.00 | 0.00 | 0.00 | 61 | 952.2 |
| 20260507194905 | 12 | 359 | 6.4 | 6.4 | 0.00 | 0.00 | 0.00 | 62 | 952.0 |
| 20260507194401 | 12 | 13 | 1.6 | 3.2 | 0.00 | 0.00 | 0.00 | 65 | 952.0 |
| 20260507193857 | 12 | 25 | 1.6 | 4.8 | 0.00 | 0.00 | 0.00 | 63 | 951.9 |
| 20260507193355 | 13 | 345 | 4.8 | 6.4 | 0.00 | 0.00 | 0.00 | 63 | 952.1 |
| 20260507192851 | 14 | 286 | 1.6 | 3.2 | 0.00 | 0.00 | 0.00 | 57 | 951.9 |
| 20260507192347 | 13 | 225 | 0.0 | 4.8 | 0.00 | 0.00 | 0.00 | 61 | 952.3 |
| 20260507191844 | 12 | 262 | 0.0 | 4.8 | 0.00 | 0.00 | 0.00 | 66 | 952.2 |
| 20260507191340 | 11 | 65 | 3.2 | 6.4 | 0.00 | 0.00 | 0.00 | 69 | 952.5 |
| 20260507190837 | 11 | 270 | 0.0 | 4.8 | 0.00 | 0.00 | 0.00 | 68 | 952.4 |
| 20260507190335 | 11 | 340 | 3.2 | 6.4 | 0.00 | 0.00 | 0.00 | 69 | 952.4 |
| 20260507185834 | 11 | 339 | 3.2 | 6.4 | 0.00 | 0.00 | 0.00 | 69 | 952.6 |
| 20260507185330 | 11 | 92 | 3.2 | 4.8 | 0.00 | 0.00 | 0.00 | 72 | 952.6 |
| 20260507184827 | 11 | 32 | 4.8 | 4.8 | 0.00 | 0.00 | 0.00 | 69 | 952.6 |
| 20260507184326 | 11 | 251 | 6.4 | 11.3 | 0.00 | 0.00 | 0.00 | 67 | 952.7 |
| 20260507183822 | 12 | 4 | 0.0 | 6.4 | 0.00 | 0.00 | 0.00 | 71 | 952.6 |
| 20260507183319 | 12 | 220 | 4.8 | 14.5 | 0.00 | 0.00 | 0.00 | 66 | 952.6 |
| 20260507182817 | 12 | 265 | 6.4 | 6.4 | 0.00 | 0.00 | 0.00 | 65 | 952.5 |
| 20260507182312 | 12 | 334 | 1.6 | 9.7 | 0.00 | 0.00 | 0.00 | 68 | 952.5 |
| 20260507181809 | 12 | 354 | 3.2 | 6.4 | 0.00 | 0.00 | 0.00 | 66 | 952.5 |
| 20260507181305 | 12 | 213 | 1.6 | 6.4 | 0.00 | 0.00 | 0.00 | 68 | 952.4 |
| 20260507180801 | 12 | 340 | 1.6 | 11.3 | 0.00 | 0.00 | 0.00 | 65 | 952.3 |
| 20260507180259 | 13 | 204 | 6.4 | 14.5 | 0.00 | 0.00 | 0.00 | 63 | 952.5 |
| 20260507175754 | 12 | 326 | 0.0 | 6.4 | 0.00 | 0.00 | 0.00 | 69 | 952.4 |
| 20260507175251 | 13 | 198 | 3.2 | 6.4 | 0.00 | 0.00 | 0.00 | 62 | 952.2 |
| 20260507174748 | 12 | 306 | 0.0 | 4.8 | 0.00 | 0.00 | 0.00 | 67 | 952.5 |
| 20260507174246 | 12 | 0 | 3.2 | 4.8 | 0.00 | 0.00 | 0.00 | 70 | 952.6 |
| 20260507173744 | 11 | 308 | 0.0 | 3.2 | 0.00 | 0.00 | 0.00 | 67 | 952.4 |
| 20260507173241 | 11 | 13 | 3.2 | 9.7 | 0.00 | 0.00 | 0.00 | 67 | 952.6 |
| 20260507172737 | 11 | 265 | 1.6 | 4.8 | 0.00 | 0.00 | 0.00 | 65 | 952.5 |
| 20260507172234 | 11 | 233 | 0.0 | 12.9 | 0.00 | 0.00 | 0.00 | 65 | 952.8 |
| 20260507171734 | 12 | 318 | 0.0 | 11.3 | 0.00 | 0.00 | 0.00 | 63 | 952.6 |
| 20260507171232 | 12 | 267 | 3.2 | 3.2 | 0.00 | 0.00 | 0.00 | 64 | 952.8 |
| 20260507170729 | 12 | 248 | 3.2 | 6.4 | 0.00 | 0.00 | 0.00 | 62 | 952.9 |
| 20260507170225 | 12 | 16 | 3.2 | 6.4 | 0.00 | 0.00 | 0.00 | 60 | 952.7 |
| 20260507165721 | 12 | 289 | 0.0 | 3.2 | 0.00 | 0.00 | 0.00 | 60 | 952.7 |
| 20260507165217 | 12 | 350 | 1.6 | 6.4 | 0.00 | 0.00 | 0.00 | 63 | 952.7 |
| 20260507164713 | 12 | 62 | 0.0 | 9.7 | 0.00 | 0.00 | 0.00 | 61 | 952.7 |
| 20260507164211 | 12 | 8 | 1.6 | 4.8 | 0.00 | 0.00 | 0.00 | 65 | 952.7 |
| 20260507163708 | 12 | 133 | 0.0 | 3.2 | 0.00 | 0.00 | 0.00 | 59 | 952.7 |
| 20260507163206 | 12 | 354 | 3.2 | 4.8 | 0.00 | 0.00 | 0.00 | 60 | 952.8 |
| 20260507162702 | 12 | 333 | 1.6 | 4.8 | 0.00 | 0.00 | 0.00 | 62 | 952.8 |
| 20260507162158 | 12 | 297 | 0.0 | 4.8 | 0.00 | 0.00 | 0.00 | 58 | 952.9 |
| 20260507161654 | 12 | 25 | 1.6 | 4.8 | 0.00 | 0.00 | 0.00 | 65 | 952.7 |
| 20260507161150 | 12 | 288 | 1.6 | 3.2 | 0.00 | 0.00 | 0.00 | 63 | 952.8 |
| 20260507160647 | 11 | 341 | 3.2 | 4.8 | 0.00 | 0.00 | 0.00 | 61 | 953.1 |
| 20260507160144 | 11 | 341 | 0.0 | 3.2 | 0.00 | 0.00 | 0.00 | 65 | 953.3 |
| 20260507155639 | 11 | 39 | 3.2 | 3.2 | 0.00 | 0.00 | 0.00 | 64 | 953.3 |
| 20260507155136 | 11 | 242 | 0.0 | 3.2 | 0.00 | 0.00 | 0.00 | 67 | 953.1 |
| 20260507154633 | 11 | 67 | 3.2 | 6.4 | 0.00 | 0.00 | 0.00 | 70 | 953.3 |
| 20260507154130 | 11 | 267 | 1.6 | 3.2 | 0.00 | 0.00 | 0.00 | 65 | 953.4 |
| 20260507153621 | 11 | 182 | 0.0 | 4.8 | 0.00 | 0.00 | 0.00 | 69 | 953.1 |
| 20260507153118 | 11 | 334 | 0.0 | 3.2 | 0.00 | 0.00 | 0.00 | 74 | 953.2 |
| 20260507152614 | 10 | 258 | 0.0 | 4.8 | 0.00 | 0.00 | 0.00 | 65 | 953.0 |
| 20260507152110 | 10 | 1 | 3.2 | 3.2 | 0.00 | 0.00 | 0.00 | 69 | 953.2 |
| 20260507151606 | 10 | 253 | 0.0 | 3.2 | 0.00 | 0.00 | 0.00 | 67 | 953.3 |
| 20260507151103 | 10 | 247 | 0.0 | 1.6 | 0.00 | 0.00 | 0.00 | 71 | 953.4 |
| 20260507150601 | 10 | 238 | 3.2 | 6.4 | 0.00 | 0.00 | 0.00 | 67 | 953.4 |
| 20260507150057 | 10 | 264 | 0.0 | 3.2 | 0.00 | 0.00 | 0.00 | 71 | 953.2 |
| 20260507145552 | 10 | 268 | 4.8 | 4.8 | 0.00 | 0.00 | 0.00 | 65 | 953.6 |
| 20260507145050 | 10 | 345 | 0.0 | 1.6 | 0.00 | 0.00 | 0.00 | 71 | 953.4 |
| 20260507144546 | 10 | 260 | 0.0 | 1.6 | 0.00 | 0.00 | 0.00 | 73 | 953.4 |
| 20260507144044 | 10 | 337 | 3.2 | 3.2 | 0.00 | 0.00 | 0.00 | 73 | 953.2 |
| 20260507143540 | 10 | 267 | 0.0 | 1.6 | 0.00 | 0.00 | 0.00 | 72 | 953.4 |
| 20260507143038 | 9 | 242 | 0.0 | 4.8 | 0.00 | 0.00 | 0.00 | 77 | 953.6 |
| 20260507142533 | 9 | 267 | 3.2 | 4.8 | 0.00 | 0.00 | 0.00 | 76 | 953.4 |
| 20260507142031 | 9 | 285 | 0.0 | 1.6 | 0.00 | 0.00 | 0.00 | 78 | 953.5 |
| 20260507141527 | 9 | 261 | 0.0 | 9.7 | 0.00 | 0.00 | 0.00 | 77 | 953.5 |
| 20260507141024 | 9 | 351 | 3.2 | 3.2 | 0.00 | 0.00 | 0.00 | 81 | 953.4 |
| 20260507140521 | 9 | 247 | 0.0 | 1.6 | 0.00 | 0.00 | 0.00 | 82 | 953.5 |
| 20260507140018 | 8 | 338 | 0.0 | 1.6 | 0.00 | 0.00 | 0.00 | 83 | 953.7 |
| 20260507135514 | 8 | 119 | 0.0 | 3.2 | 0.00 | 0.00 | 0.00 | 83 | 953.8 |
| 20260507135012 | 8 | 217 | 0.0 | 4.8 | 0.00 | 0.00 | 0.00 | 86 | 953.6 |
| 20260507134508 | 8 | 234 | 0.0 | 0.0 | 0.00 | 0.00 | 0.00 | 87 | 953.8 |
| 20260507134004 | 8 | 220 | 0.0 | 1.6 | 0.00 | 0.00 | 0.00 | 87 | 953.9 |
| 20260507133500 | 8 | 195 | 0.0 | 0.0 | 0.00 | 0.00 | 0.00 | 88 | 953.8 |
| 20260507132959 | 7 | 94 | 0.0 | 3.2 | 0.00 | 0.00 | 0.00 | 89 | 954.1 |
| 20260507132455 | 7 | 224 | 0.0 | 0.0 | 0.00 | 0.00 | 0.00 | 88 | 954.0 |
| 20260507131951 | 8 | 252 | 3.2 | 4.8 | 0.00 | 0.00 | 0.00 | 90 | 953.9 |
| 20260507131448 | 7 | 356 | 0.0 | 1.6 | 0.00 | 0.00 | 0.00 | 90 | 953.7 |
| 20260507130945 | 7 | 251 | 0.0 | 0.0 | 0.00 | 0.00 | 0.00 | 91 | 954.0 |
| 20260507130442 | 7 | 226 | 0.0 | 0.0 | 0.00 | 0.00 | 0.00 | 92 | 954.0 |
| 20260507125941 | 7 | 307 | 0.0 | 0.0 | 0.00 | 0.00 | 0.00 | 92 | 954.0 |
| 20260507125438 | 7 | 248 | 0.0 | 0.0 | 0.00 | 0.00 | 0.00 | 92 | 954.1 |
| 20260507124935 | 7 | 282 | 0.0 | 0.0 | 0.00 | 0.00 | 0.00 | 92 | 954.2 |
| 20260507124432 | 7 | 265 | 0.0 | 0.0 | 0.00 | 0.00 | 0.00 | 92 | 954.1 |
| 20260507123930 | 7 | 268 | 0.0 | 0.0 | 0.00 | 0.00 | 0.00 | 93 | 954.1 |
| 20260507123427 | 7 | 230 | 0.0 | 1.6 | 0.00 | 0.00 | 0.00 | 92 | 954.2 |
| 20260507122923 | 7 | 223 | 0.0 | 3.2 | 0.00 | 0.00 | 0.00 | 91 | 954.3 |
| 20260507122418 | 7 | 222 | 0.0 | 0.0 | 0.00 | 0.00 | 0.00 | 92 | 954.0 |
| 20260507121915 | 7 | 247 | 0.0 | 0.0 | 0.00 | 0.00 | 0.00 | 92 | 953.8 |
| 20260507121410 | 7 | 247 | 0.0 | 3.2 | 0.00 | 0.00 | 0.00 | 93 | 953.8 |
| 20260507120908 | 7 | 69 | 3.2 | 3.2 | 0.00 | 0.00 | 0.00 | 93 | 953.7 |
| 20260507120404 | 7 | 268 | 4.8 | 6.4 | 0.00 | 0.00 | 0.00 | 93 | 953.8 |
| 20260507115900 | 7 | 292 | 0.0 | 0.0 | 0.00 | 0.00 | 0.00 | 95 | 953.7 |
| 20260507115356 | 7 | 293 | 0.0 | 0.0 | 0.00 | 0.00 | 0.00 | 95 | 953.6 |
| 20260507114852 | 7 | 282 | 0.0 | 0.0 | 0.00 | 0.00 | 0.00 | 95 | 953.5 |
| 20260507114349 | 7 | 283 | 0.0 | 0.0 | 0.00 | 0.00 | 0.00 | 96 | 953.5 |
| 20260507113846 | 7 | 261 | 0.0 | 0.0 | 0.00 | 0.00 | 0.00 | 96 | 953.5 |
| 20260507113343 | 7 | 223 | 0.0 | 0.0 | 0.00 | 0.00 | 0.00 | 96 | 953.5 |
| 20260507112841 | 7 | 231 | 0.0 | 0.0 | 0.00 | 0.00 | 0.00 | 97 | 953.6 |
| 20260507112338 | 7 | 233 | 0.0 | 1.6 | 0.00 | 0.00 | 0.00 | 96 | 953.4 |
| 20260507111836 | 7 | 255 | 0.0 | 0.0 | 0.00 | 0.00 | 0.00 | 96 | 953.4 |
| 20260507111332 | 7 | 279 | 0.0 | 0.0 | 0.00 | 0.00 | 0.00 | 96 | 953.4 |
| 20260507110828 | 7 | 279 | 0.0 | 3.2 | 0.00 | 0.00 | 0.00 | 95 | 953.5 |
| 20260507110324 | 7 | 256 | 0.0 | 0.0 | 0.00 | 0.00 | 0.00 | 96 | 953.2 |
| 20260507105821 | 7 | 229 | 0.0 | 3.2 | 0.00 | 0.00 | 0.00 | 96 | 953.2 |
| 20260507105318 | 7 | 153 | 0.0 | 0.0 | 0.00 | 0.00 | 0.00 | 96 | 953.2 |
| 20260507104815 | 7 | 268 | 0.0 | 0.0 | 0.00 | 0.00 | 0.00 | 96 | 953.1 |
| 20260507104311 | 7 | 268 | 0.0 | 0.0 | 0.00 | 0.00 | 0.00 | 96 | 953.1 |
| 20260507103807 | 7 | 252 | 0.0 | 0.0 | 0.00 | 0.00 | 0.00 | 96 | 953.1 |
| 20260507103304 | 7 | 255 | 0.0 | 0.0 | 0.00 | 0.00 | 0.00 | 96 | 953.1 |
| 20260507102801 | 7 | 231 | 0.0 | 0.0 | 0.00 | 0.00 | 0.00 | 96 | 953.1 |